Location: ?????
(38.2579°N, 22.9711°E)
Time: 13:54:23
(UTC+00:00)

Cosmos 1867 - Pass Details

Date: 13 December 2025
Orbit: 777 x 797 km, 65.0° (Epoch: 17 January)

Event Time Altitude Azimuth Distance (km) Brightness Sun altitude
Rises 16:08:01 0° 327° (NNW) 3,305 7.0 -11.4°
Reaches altitude 10° 16:10:27 10° 325° (NW) 2,371 6.2 -11.9°
Maximum altitude 16:15:53 70° 242° (WSW) 845 3.9 -12.9°
Drops below altitude 10° 16:21:15 10° 160° (SSE) 2,350 6.0 -13.9°
Sets 16:23:40 0° 158° (SSE) 3,273 6.7 -14.3°
